Location: ?? ?????
(31.3916°N, 45.2150°E)
Time: 06:24:25
(UTC+00:00)

Daily predictions for brighter satellites

Satellite Brightness Start Highest point End
(mag) Time Altitude Azimuth Time Altitude Azimuth Time Altitude Azimuth
BREEZE-M DEB (TANK) 4.2 14:19:10 10° WNW 14:22:36 56° SW 14:33:55 10° SE
Aureole 3 Rocket 3.6 14:30:46 10° SSE 14:33:51 31° E 14:37:45 10° NNE
Gbstr 26 Del rocket 4.4 14:31:39 10° NW 14:38:19 85° SW 14:46:10 10° SE
Cosmos 1980 Rocket 3.9 14:38:14 10° ESE 14:40:13 12° E 14:42:12 10° ENE
Cosmos 1703 4.4 14:37:42 10° NNW 14:41:32 51° W 14:45:22 10° S
CORIOLIS 4.1 14:39:56 10° SSE 14:45:16 85° ENE 14:50:38 10° NNW
FengYun 1-2 T 4.3 14:40:02 10° SSE 14:45:36 63° ENE 14:51:11 10° N
Cosmos 2297 Rocket 3.3 14:43:39 10° N 14:48:02 23° ENE 14:52:24 10° ESE
Meteor 1-11 4.3 14:43:02 10° N 14:48:48 86° E 14:54:35 10° S
Cosmos 1302 Rocket 4.1 14:46:53 10° SSW 14:52:08 83° WNW 14:57:25 10° NNE
ERS-2 3.9 14:51:11 10° N 14:54:31 35° WNW 14:57:50 10° SW
SAR-Lupe-4 3.7 14:51:25 10° N 14:54:59 77° WNW 14:58:33 10° SSW
USA 281 3.3 14:49:30 10° SSE 14:56:05 85° WSW 15:02:40 10° NNW
COSMO-SKYMED 1 2.5 14:53:54 10° NNE 14:58:15 76° ESE 15:02:34 10° S
Meteor 2-8 Rocket 4.4 14:52:17 10° S 14:58:17 67° E 15:04:22 10° NNE
Aureole 3 2.7 14:55:16 10° S 14:58:46 81° E 15:01:50 10° N
Cosmos 1340 3.5 14:55:52 10° NNE 14:59:10 29° ENE 15:02:28 10° SE
COSMOS 2487 4.5 14:56:33 10° NW 14:59:39 32° WSW 15:02:43 10° SSW
Timation 2 Rocket 4.3 14:53:40 10° N 15:00:11 52° ENE 15:06:50 10° SE
Okean O Rocket 2.9 14:58:51 10° S 15:03:01 44° W 15:07:11 10° NNW
ASTRO E2 2.7 15:00:01 10° WSW 15:03:57 73° S 15:06:49 18° E
YAOGAN 1 3.7 15:01:56 10° ESE 15:05:17 22° ENE 15:08:39 10° NNE
Feng Yun 1-1 Rocket 4.3 15:00:01 10° SSE 15:05:51 72° ENE 15:11:45 10° N
Meteor 2-21 Rocket 4.5 15:00:15 10° N 15:06:26 87° W 15:12:31 10° S
GPS 2-04 Rocket1 3.0 15:03:08 10° SW 15:07:06 58° SSE 15:09:52 19° E
CZ-2C R/B 4.0 15:02:30 10° SE 15:07:27 30° ENE 15:12:21 10° NNE
Cosmos 1825 Rocket 4.4 15:03:58 10° NNW 15:08:18 55° W 15:12:34 10° S
Elektron 3 4.0 15:05:50 10° NNW 15:10:20 73° NE 15:13:16 10° SE
Cosmos 1553 Rocket 4.0 15:04:24 10° S 15:10:44 70° E 15:17:01 10° N
Delta 2 Rocket 4.0 15:07:21 10° WNW 15:12:33 71° NNE 15:16:34 19° E
Cosmos 44 Rocket 3.7 15:10:27 10° S 15:14:45 37° ESE 15:17:52 17° NE
Cosmos 1455 2.7 15:13:30 10° SSE 15:16:57 36° E 15:20:26 10° NNE
Meteor 2-10 Rocket 3.6 15:12:10 10° S 15:17:28 57° E 15:22:34 10° NNE
Cosmos 2219 3.5 15:12:52 10° N 15:18:24 45° ENE 15:23:51 10° SE
ASC 2 Rocket 4.5 15:16:38 10° WSW 15:20:24 31° S 15:24:02 15° SE
Cosmos 1939 Rocket 2.8 15:20:28 10° S 15:24:28 85° WSW 15:28:25 10° NNW
CZ-4 R/B 4.3 15:24:17 10° SSE 15:28:24 78° ENE 15:32:34 10° N
ARGOS 4.4 15:31:38 22° NE 15:31:38 22° NE 15:34:49 10° NNE
Helios 1A Rocket 2.8 15:27:09 10° SSE 15:31:15 71° ENE 15:35:21 10° N
Cosmos 1992 Rocket 3.9 15:26:08 10° SSW 15:31:19 86° ESE 15:36:33 10° NNE
Meteor 2-15 4.4 15:26:09 10° S 15:32:18 84° E 15:38:27 10° N
Cosmos 2369 3.6 15:26:48 10° S 15:32:29 72° ESE 15:38:10 10° NNE
Okean-O 2.5 15:31:55 10° SSE 15:36:19 71° ENE 15:40:43 10° N
BREEZE-M DEB (TANK) 2.8 15:36:58 10° WSW 15:39:46 37° NW 15:40:00 36° NNW
OAO 2 Rocket 3.5 15:35:58 10° W 15:40:53 61° N 15:42:39 37° NE
H-2A R/B 2.5 15:37:35 19° SE 15:40:57 41° ENE 15:46:01 10° N
SL-08 R/B 4.4 15:36:00 10° N 15:42:11 88° E 15:48:16 10° S
Cosmos 1745 Rocket 3.9 15:39:05 10° N 15:45:22 65° E 15:51:39 10° SSE
Delta 142 4.3 15:41:16 10° W 15:45:53 55° S 15:48:13 32° SE
CSL-04 Rocket 3.9 15:44:21 18° SE 15:48:15 48° ENE 15:53:32 10° N
CZ-4 R/B 1.2 15:44:23 10° S 15:48:18 86° WSW 15:52:11 10° NNW
CZ-3B R/B 4.4 15:43:48 10° WSW 15:50:01 29° S 15:51:15 25° SSE
Atlas Centaur 2 3.1 15:42:31 10° WSW 15:51:00 81° S 15:54:58 36° E
Cosmos 2227 Rocket 2.1 15:46:48 10° NNW 15:52:26 69° ENE 15:55:54 24° SSE
Meteor 2-1 Rocket 4.4 15:49:03 10° SSW 15:54:33 72° W 16:00:04 10° N
Milstar 3 2.8 15:48:44 10° W 15:55:34 70° S 15:58:19 38° ESE
Cosmos 2058 2.7 15:54:05 10° N 15:58:11 87° E 15:58:48 64° SSE
Cosmos 1386 Rocket 4.4 15:52:33 10° N 15:58:58 80° E 16:05:14 10° S
Cosmos 1892 3.4 15:56:52 10° NNW 16:00:40 54° W 16:04:25 10° S
Cosmos 1697 Rocket 3.4 15:55:31 10° SW 16:00:56 52° WNW 16:06:25 10° N
OAO 3 Rocket 3.3 16:03:32 10° WNW 16:08:15 62° SSW 16:08:31 61° S
SJ-11-01 4.4 16:15:01 63° NNW 16:15:01 63° NNW 16:18:56 10° NNW
Cosmos 1709 Rocket 4.0 16:08:51 10° N 16:14:55 62° ENE 16:14:55 62° ENE
Cosmos 1346 Rocket 3.9 16:15:16 10° NNW 16:18:27 43° WNW 16:18:27 43° WNW
Cosmos 1980 Rocket 2.4 16:17:55 10° SSW 16:23:32 66° WNW 16:25:26 41° N
Cosmos 2315 Rocket 3.9 16:19:25 10° S 16:25:38 83° W 16:31:52 10° N
CSL-04 Debris 4.5 16:23:39 12° S 16:28:36 64° WSW 16:34:00 10° NNW
Cosmos 968 Rocket 4.2 16:24:23 10° NNW 16:29:24 51° WSW 16:31:14 34° SSW
Cosmos 2297 Rocket 3.4 16:26:55 10° NW 16:32:10 40° WSW 16:37:21 10° S
H-2A R/B 4.4 17:18:13 16° SW 17:20:26 20° W 17:24:19 10° NW
Atlas Centaur 2 4.1 17:32:27 10° W 17:37:33 40° W 17:37:33 40° W
H-2A R/B (2) 4.1 17:23:23 10° W 17:45:44 54° WSW 17:45:44 54° WSW
